Weather History for Durango, CO

Change the Weather History Date:

Thursday, December 15, 2011

  Actual Average Record
Temperature  
Mean Temperature 26 °F 26 °F  
Max Temperature 35 °F 39 °F 52 °F (1977)
Min Temperature 17 °F 13 °F -5 °F (1987)
Degree Days  
Heating Degree Days 39 39  
Month to date heating degree days 555  
Since 1 July heating degree days 2228  
Moisture  
Dew Point 18 °F    
Average Humidity 78    
Maximum Humidity 92    
Minimum Humidity 57    
Precipitation  
Precipitation 0.00 in 0.04 in 0.35 in (1983)
Month to date precipitation 0.49  
Year to date precipitation 15.39  
Sea Level Pressure  
Sea Level Pressure 30.31 in    
Wind  
Wind Speed 2 mph (ENE)    
Max Wind Speed 7 mph    
Max Gust Speed -    
Visibility 10 miles    
Events      
T = Trace of Precipitation, MM = Missing Value Source: NWS Daily Summary

Daily Weather History Graph

Daily Weather History Graph

Search for Another Location

Airport:

Trip Planner

Search our weather history database for the weather conditions in past years. The results will help you decide how hot, cold, wet, or windy it might be!

Date:

Astronomy

Dec. 15, 2011 Rise Set
Actual Time 7:17 AM MST 4:54 PM MST
Civil Twilight 6:48 AM MST 5:24 PM MST
Nautical Twilight 6:15 AM MST 5:56 PM MST
Astronomical Twilight 5:43 AM MST 6:28 PM MST
Moon 10:18 PM MST 10:40 AM MST
Length of Visible Light 10h 35m
Length of Day
9h 37m
Waning Gibbous, 74% of the Moon is Illuminated
Dec 15
Waning Gibbous
Dec 17
Last Quarter
Dec 24
New
Dec 31
First Quarter
Jan 9
Full

Hourly Weather History & Observations

Time (MST) Temp. Windchill Dew Point Humidity Pressure Visibility Wind Dir Wind Speed Gust Speed Precip Events Conditions
12:11 AM 21.2 °F - 17.6 °F 86% 30.18 in 10.0 mi Calm Calm - N/A   Scattered Clouds
12:53 AM 19.0 °F 10.0 °F 17.1 °F 92% 30.28 in 10.0 mi WNW 6.9 mph - N/A   Clear
1:53 AM 19.0 °F - 17.1 °F 92% 30.28 in 10.0 mi Calm Calm - N/A   Clear
2:53 AM 19.0 °F - 15.1 °F 85% 30.28 in 10.0 mi Calm Calm - N/A   Clear
3:53 AM 18.0 °F - 15.1 °F 88% 30.28 in 10.0 mi Calm Calm - N/A   Clear
4:53 AM 18.0 °F - 12.0 °F 78% 30.28 in 10.0 mi Calm Calm - N/A   Clear
5:53 AM 17.1 °F - 12.0 °F 81% 30.30 in 10.0 mi Calm Calm - N/A   Clear
7:53 AM 18.0 °F - 12.9 °F 81% 30.34 in 10.0 mi Calm Calm - N/A   Clear
8:53 AM 21.0 °F - 16.0 °F 81% 30.36 in 10.0 mi Calm Calm - N/A   Clear
9:53 AM 25.0 °F 20.7 °F 19.0 °F 78% 30.37 in 10.0 mi SE 3.5 mph - N/A   Clear
10:53 AM 28.9 °F 21.9 °F 19.0 °F 67% 30.34 in 10.0 mi East 6.9 mph - N/A   Clear
12:53 PM 34.0 °F 28.0 °F 24.1 °F 67% 30.28 in 10.0 mi Variable 6.9 mph - N/A   Clear
1:53 PM 35.1 °F 30.1 °F 21.0 °F 57% 30.27 in 10.0 mi Variable 5.8 mph - N/A   Scattered Clouds
2:53 PM 34.0 °F 28.8 °F 21.0 °F 59% 30.27 in 10.0 mi East 5.8 mph - N/A   Scattered Clouds
3:53 PM 33.1 °F - 21.0 °F 61% 30.29 in 10.0 mi Calm Calm - N/A   Partly Cloudy
4:53 PM 32.0 °F 28.7 °F 21.0 °F 64% 30.30 in 10.0 mi East 3.5 mph - N/A   Clear
5:53 PM 28.9 °F 25.2 °F 21.0 °F 72% 30.32 in 10.0 mi East 3.5 mph - N/A   Clear
6:53 PM 27.0 °F - 21.9 °F 81% 30.35 in 10.0 mi Calm Calm - N/A   Clear
7:53 PM 26.1 °F 21.9 °F 19.9 °F 78% 30.37 in 10.0 mi NNE 3.5 mph - N/A   Clear
8:53 PM 24.1 °F - 19.9 °F 84% 30.37 in 10.0 mi Calm Calm - N/A   Clear
9:53 PM 21.9 °F - 19.0 °F 89% 30.37 in 10.0 mi Calm Calm - N/A   Clear
10:53 PM 21.0 °F 16.2 °F 18.0 °F 88% 30.38 in 10.0 mi NE 3.5 mph - N/A   Clear
11:53 PM 19.9 °F 13.4 °F 16.0 °F 85% 30.38 in 10.0 mi North 4.6 mph - N/A   Clear